RUK7YK EGPH-EIKN

Flight info

Callsign RUK7YK
Flight time 1h 4m
Altitude 32000
Route GOSAM P600 TRN DCT MAGEE DCT BELZU DCT ERNAN DCT CON
Aircraft B738/M-SDE2E3FGHIRWXY/LB1

Departure

Time 2026-05-09 19:15
Airport Edinburgh Airport (EGPH)

Arrival

Time 2026-05-09 20:19
Airport Ireland West Airport Knock (EIKN)
Time Latitude Longitude Altitude Speed Heading
2026-05-09 18:59 55.94963 -3.36284 115 ft 0 kts 149°
2026-05-09 19:06 55.94964 -3.36285 115 ft 1 kts 149°
2026-05-09 19:06 55.94985 -3.36308 95 ft 4 kts 149°
2026-05-09 19:06 55.95004 -3.36328 117 ft 4 kts 144°
2026-05-09 19:07 55.95019 -3.36360 111 ft 4 kts 92°
2026-05-09 19:07 55.95012 -3.36403 112 ft 4 kts 59°
2026-05-09 19:07 55.95000 -3.36440 113 ft 2 kts 59°
2026-05-09 19:07 55.94999 -3.36442 113 ft 0 kts 59°
2026-05-09 19:10 55.94999 -3.36441 115 ft 0 kts 59°
2026-05-09 19:10 55.95031 -3.36393 114 ft 14 kts 16°
2026-05-09 19:10 55.95059 -3.36504 115 ft 14 kts 245°
2026-05-09 19:11 55.94994 -3.36698 113 ft 23 kts 239°
2026-05-09 19:11 55.94904 -3.36963 114 ft 25 kts 238°
2026-05-09 19:11 55.94816 -3.37221 115 ft 23 kts 239°
2026-05-09 19:11 55.94731 -3.37474 111 ft 25 kts 239°
2026-05-09 19:12 55.94639 -3.37743 113 ft 25 kts 239°
2026-05-09 19:12 55.94552 -3.38001 115 ft 23 kts 238°
2026-05-09 19:12 55.94469 -3.38243 114 ft 23 kts 239°
2026-05-09 19:12 55.94390 -3.38480 114 ft 22 kts 239°
2026-05-09 19:13 55.94296 -3.38755 113 ft 22 kts 239°
2026-05-09 19:13 55.94351 -3.38926 113 ft 18 kts 322°
2026-05-09 19:13 55.94442 -3.38893 112 ft 9 kts 56°
2026-05-09 19:13 55.94446 -3.38881 112 ft 0 kts 58°
2026-05-09 19:14 55.94450 -3.38868 112 ft 11 kts 58°
2026-05-09 19:14 55.94630 -3.38340 112 ft 88 kts 59°
2026-05-09 19:15 55.95060 -3.37064 124 ft 149 kts 61°
2026-05-09 19:15 55.95613 -3.35395 731 ft 162 kts 59°
2026-05-09 19:15 55.96293 -3.33716 1500 ft 172 kts 44°
2026-05-09 19:15 55.97210 -3.32325 1817 ft 170 kts 43°
2026-05-09 19:16 55.98102 -3.30906 1862 ft 174 kts 44°
2026-05-09 19:16 55.99059 -3.29373 2095 ft 197 kts 43°
2026-05-09 19:16 56.00330 -3.28131 2370 ft 222 kts 14°
2026-05-09 19:16 56.01892 -3.28358 2924 ft 235 kts 340°
2026-05-09 19:17 56.03192 -3.30270 3321 ft 258 kts 302°
2026-05-09 19:17 56.03555 -3.33402 4214 ft 265 kts 263°
2026-05-09 19:17 56.03041 -3.36579 5340 ft 265 kts 253°
2026-05-09 19:17 56.02471 -3.39732 5835 ft 265 kts 256°
2026-05-09 19:18 56.01958 -3.42894 6522 ft 268 kts 257°
2026-05-09 19:18 56.01460 -3.46105 7523 ft 267 kts 258°
2026-05-09 19:18 56.00987 -3.49315 8553 ft 267 kts 258°
2026-05-09 19:18 56.00523 -3.52544 9526 ft 270 kts 258°
2026-05-09 19:19 56.00057 -3.55803 10493 ft 272 kts 258°
2026-05-09 19:19 55.99578 -3.59175 10953 ft 292 kts 258°
2026-05-09 19:19 55.99063 -3.62799 11265 ft 315 kts 258°
2026-05-09 19:19 55.98514 -3.66638 11970 ft 323 kts 258°
2026-05-09 19:20 55.97952 -3.70545 12821 ft 327 kts 259°
2026-05-09 19:20 55.97383 -3.74488 13686 ft 331 kts 259°
2026-05-09 19:20 55.96805 -3.78496 14482 ft 335 kts 259°
2026-05-09 19:20 55.96219 -3.82540 15280 ft 338 kts 259°
2026-05-09 19:21 55.95629 -3.86614 16082 ft 340 kts 259°
2026-05-09 19:21 55.95032 -3.90720 16874 ft 343 kts 259°
2026-05-09 19:21 55.94430 -3.94849 17649 ft 346 kts 259°
2026-05-09 19:21 55.93673 -3.98968 18345 ft 356 kts 248°
2026-05-09 19:22 55.92282 -4.02695 19012 ft 367 kts 233°
2026-05-09 19:22 55.90395 -4.05822 19699 ft 375 kts 221°
2026-05-09 19:22 55.88260 -4.08534 20376 ft 379 kts 219°
2026-05-09 19:22 55.86069 -4.11196 21010 ft 383 kts 219°
2026-05-09 19:23 55.83868 -4.13885 21628 ft 386 kts 219°
2026-05-09 19:23 55.81701 -4.16570 21976 ft 370 kts 220°
2026-05-09 19:23 55.79629 -4.19158 21938 ft 358 kts 220°
2026-05-09 19:23 55.77558 -4.21757 22048 ft 373 kts 220°
2026-05-09 19:24 55.75379 -4.24455 22258 ft 388 kts 219°
2026-05-09 19:24 55.73232 -4.27090 22730 ft 394 kts 219°
2026-05-09 19:24 55.70965 -4.29863 23384 ft 396 kts 219°
2026-05-09 19:24 55.68702 -4.32646 24042 ft 396 kts 219°
2026-05-09 19:25 55.66435 -4.35444 24577 ft 398 kts 219°
2026-05-09 19:25 55.64159 -4.38259 25071 ft 401 kts 219°
2026-05-09 19:25 55.61864 -4.41093 25567 ft 403 kts 219°
2026-05-09 19:25 55.59561 -4.43932 26061 ft 405 kts 219°
2026-05-09 19:26 55.57248 -4.46777 26516 ft 407 kts 219°
2026-05-09 19:26 55.54903 -4.49658 26841 ft 414 kts 219°
2026-05-09 19:26 55.52536 -4.52559 27361 ft 414 kts 219°
2026-05-09 19:26 55.50173 -4.55449 28034 ft 411 kts 219°
2026-05-09 19:27 55.47838 -4.58299 28758 ft 407 kts 219°
2026-05-09 19:27 55.45523 -4.61121 29491 ft 402 kts 219°
2026-05-09 19:27 55.43230 -4.63915 30125 ft 400 kts 219°
2026-05-09 19:27 55.40949 -4.66691 30715 ft 397 kts 219°
2026-05-09 19:28 55.38682 -4.69450 31138 ft 397 kts 219°
2026-05-09 19:28 55.36407 -4.72214 31505 ft 399 kts 219°
2026-05-09 19:28 55.34119 -4.74989 31907 ft 399 kts 218°
2026-05-09 19:28 55.31833 -4.77758 32277 ft 401 kts 219°
2026-05-09 19:29 55.27581 -4.84088 32277 ft 399 kts 226°
2026-05-09 19:29 55.23568 -4.90668 32280 ft 393 kts 227°
2026-05-09 19:30 55.19547 -4.97203 32274 ft 396 kts 226°
2026-05-09 19:30 55.15469 -5.03743 32271 ft 399 kts 226°
2026-05-09 19:31 55.11357 -5.10288 32287 ft 401 kts 226°
2026-05-09 19:31 55.07234 -5.16827 32291 ft 401 kts 226°
2026-05-09 19:32 55.03100 -5.23362 32284 ft 401 kts 226°
2026-05-09 19:32 54.98974 -5.29867 32300 ft 399 kts 226°
2026-05-09 19:33 54.94864 -5.36329 32297 ft 397 kts 226°
2026-05-09 19:33 54.91326 -5.41879 32298 ft 396 kts 225°
2026-05-09 19:46 54.90623 -5.42980 32299 ft 396 kts 225°
2026-05-09 19:46 54.86529 -5.49383 32301 ft 396 kts 225°
2026-05-09 19:47 54.82445 -5.55749 32295 ft 399 kts 225°
2026-05-09 19:47 54.78969 -5.62968 32248 ft 380 kts 243°
2026-05-09 19:48 54.77827 -5.67022 31950 ft 371 kts 252°
2026-05-09 19:48 54.76951 -5.71212 31559 ft 369 kts 253°
2026-05-09 19:48 54.76115 -5.75321 31586 ft 356 kts 253°
2026-05-09 19:48 54.75289 -5.79371 31584 ft 360 kts 253°
2026-05-09 19:49 54.73561 -5.87756 31611 ft 378 kts 253°
2026-05-09 19:49 54.71765 -5.96315 31599 ft 377 kts 252°
2026-05-09 19:50 54.69970 -6.04799 31614 ft 374 kts 252°
2026-05-09 19:50 54.68183 -6.13224 31615 ft 372 kts 252°
2026-05-09 19:51 54.66399 -6.21590 31609 ft 370 kts 252°
2026-05-09 19:51 54.65353 -6.25668 31495 ft 375 kts 245°
2026-05-09 19:51 54.64106 -6.29644 31229 ft 377 kts 244°
2026-05-09 19:52 54.62811 -6.33576 30988 ft 375 kts 243°
2026-05-09 19:52 54.61521 -6.37453 30735 ft 370 kts 243°
2026-05-09 19:52 54.60267 -6.41236 30499 ft 366 kts 243°
2026-05-09 19:52 54.59013 -6.45047 30222 ft 364 kts 244°
2026-05-09 19:53 54.57774 -6.48833 29889 ft 362 kts 243°
2026-05-09 19:53 54.56541 -6.52616 29610 ft 361 kts 244°
2026-05-09 19:53 54.55312 -6.56389 29332 ft 361 kts 244°
2026-05-09 19:53 54.54087 -6.60151 29054 ft 360 kts 244°
2026-05-09 19:54 54.52861 -6.63914 28779 ft 360 kts 244°
2026-05-09 19:54 54.52050 -6.66400 28602 ft 360 kts 244°
2026-05-09 19:54 54.50825 -6.70151 28328 ft 360 kts 243°
2026-05-09 19:54 54.49599 -6.73898 28061 ft 359 kts 243°
2026-05-09 19:55 54.48372 -6.77643 27795 ft 359 kts 243°
2026-05-09 19:55 54.47146 -6.81377 27533 ft 358 kts 243°
2026-05-09 19:55 54.45920 -6.85108 27268 ft 358 kts 243°
2026-05-09 19:56 54.43483 -6.92505 26748 ft 352 kts 243°
2026-05-09 19:56 54.42278 -6.96150 26381 ft 349 kts 243°
2026-05-09 19:56 54.41084 -6.99761 26039 ft 347 kts 243°
2026-05-09 19:56 54.39897 -7.03345 25706 ft 344 kts 243°
2026-05-09 19:57 54.38717 -7.06907 25372 ft 342 kts 243°
2026-05-09 19:57 54.37544 -7.10439 25043 ft 340 kts 243°
2026-05-09 19:57 54.36373 -7.13960 24699 ft 338 kts 243°
2026-05-09 19:57 54.35208 -7.17459 24354 ft 337 kts 243°
2026-05-09 19:58 54.34049 -7.20933 24021 ft 336 kts 243°
2026-05-09 19:58 54.32890 -7.24405 23644 ft 334 kts 243°
2026-05-09 19:58 54.31737 -7.27854 23264 ft 333 kts 243°
2026-05-09 19:58 54.30589 -7.31285 22904 ft 331 kts 243°
2026-05-09 19:59 54.29449 -7.34683 22568 ft 328 kts 243°
2026-05-09 19:59 54.28314 -7.38058 22238 ft 326 kts 243°
2026-05-09 19:59 54.27284 -7.41498 21791 ft 326 kts 249°
2026-05-09 19:59 54.26369 -7.45046 21402 ft 325 kts 249°
2026-05-09 20:00 54.25487 -7.48586 21043 ft 324 kts 250°
2026-05-09 20:00 54.24610 -7.52122 20708 ft 322 kts 250°
2026-05-09 20:00 54.23734 -7.55637 20388 ft 321 kts 250°
2026-05-09 20:00 54.22859 -7.59124 20070 ft 319 kts 250°
2026-05-09 20:01 54.21981 -7.62602 19750 ft 318 kts 250°
2026-05-09 20:01 54.21111 -7.66034 19433 ft 316 kts 250°
2026-05-09 20:01 54.20237 -7.69472 19120 ft 315 kts 250°
2026-05-09 20:01 54.19364 -7.72897 18797 ft 314 kts 250°
2026-05-09 20:02 54.18492 -7.76308 18458 ft 313 kts 249°
2026-05-09 20:02 54.17622 -7.79708 18108 ft 312 kts 250°
2026-05-09 20:02 54.16755 -7.83091 17777 ft 310 kts 250°
2026-05-09 20:03 54.15031 -7.89800 17140 ft 307 kts 249°
2026-05-09 20:03 54.14173 -7.93130 16825 ft 306 kts 249°
2026-05-09 20:03 54.13318 -7.96443 16513 ft 304 kts 249°
2026-05-09 20:03 54.12467 -7.99736 16206 ft 303 kts 250°
2026-05-09 20:04 54.11627 -8.02981 15906 ft 302 kts 250°
2026-05-09 20:04 54.10778 -8.06254 15592 ft 301 kts 249°
2026-05-09 20:04 54.09933 -8.09511 15291 ft 300 kts 249°
2026-05-09 20:04 54.09087 -8.12758 14988 ft 299 kts 250°
2026-05-09 20:05 54.08245 -8.15993 14693 ft 299 kts 249°
2026-05-09 20:05 54.07402 -8.19226 14376 ft 298 kts 250°
2026-05-09 20:05 54.06563 -8.22442 14064 ft 297 kts 249°
2026-05-09 20:05 54.05723 -8.25654 13731 ft 296 kts 249°
2026-05-09 20:06 54.04885 -8.28853 13407 ft 295 kts 249°
2026-05-09 20:06 54.04050 -8.32040 13090 ft 294 kts 250°
2026-05-09 20:06 54.03218 -8.35211 12786 ft 293 kts 249°
2026-05-09 20:06 54.02387 -8.38369 12483 ft 291 kts 248°
2026-05-09 20:07 54.01561 -8.41503 12181 ft 290 kts 250°
2026-05-09 20:07 54.00735 -8.44634 11871 ft 289 kts 250°
2026-05-09 20:07 53.99912 -8.47750 11573 ft 289 kts 249°
2026-05-09 20:07 53.99092 -8.50854 11279 ft 288 kts 248°
2026-05-09 20:08 53.98272 -8.53955 10982 ft 287 kts 248°
2026-05-09 20:08 53.96638 -8.60112 10462 ft 283 kts 249°
2026-05-09 20:08 53.95834 -8.63127 10259 ft 279 kts 250°
2026-05-09 20:09 53.95039 -8.66124 9958 ft 278 kts 247°
2026-05-09 20:09 53.94245 -8.69108 9669 ft 277 kts 248°
2026-05-09 20:09 53.93451 -8.72084 9382 ft 276 kts 248°
2026-05-09 20:09 53.92661 -8.75046 9082 ft 275 kts 248°
2026-05-09 20:10 53.91871 -8.77992 8802 ft 274 kts 249°
2026-05-09 20:10 53.91075 -8.80968 8307 ft 282 kts 248°
2026-05-09 20:10 53.90307 -8.84024 7970 ft 282 kts 251°
2026-05-09 20:10 53.89623 -8.87134 7679 ft 280 kts 252°
2026-05-09 20:11 53.88957 -8.90230 7387 ft 279 kts 253°
2026-05-09 20:11 53.88292 -8.93317 7105 ft 278 kts 252°
2026-05-09 20:11 53.87623 -8.96392 6808 ft 278 kts 252°
2026-05-09 20:11 53.86954 -8.99454 6539 ft 276 kts 251°
2026-05-09 20:12 53.86285 -9.02498 6254 ft 275 kts 252°
2026-05-09 20:12 53.85619 -9.05521 6010 ft 273 kts 251°
2026-05-09 20:12 53.84954 -9.08528 5770 ft 271 kts 251°
2026-05-09 20:12 53.84294 -9.11502 5515 ft 270 kts 252°
2026-05-09 20:13 53.83642 -9.14433 5427 ft 262 kts 251°
2026-05-09 20:13 53.83035 -9.17299 5271 ft 255 kts 259°
2026-05-09 20:13 53.83158 -9.20110 5182 ft 232 kts 303°
2026-05-09 20:13 53.84193 -9.21961 5104 ft 209 kts 334°
2026-05-09 20:14 53.85528 -9.22752 5019 ft 202 kts
2026-05-09 20:14 53.86892 -9.22403 4947 ft 205 kts 25°
2026-05-09 20:14 53.88036 -9.20927 4722 ft 211 kts 51°
2026-05-09 20:14 53.88661 -9.18656 4463 ft 218 kts 75°
2026-05-09 20:15 53.88811 -9.16092 4209 ft 217 kts 82°
2026-05-09 20:15 53.88917 -9.13579 4009 ft 212 kts 81°
2026-05-09 20:15 53.89022 -9.11119 3748 ft 205 kts 81°
2026-05-09 20:15 53.89122 -9.08765 3519 ft 196 kts 81°
2026-05-09 20:16 53.89218 -9.06518 3284 ft 187 kts 80°
2026-05-09 20:16 53.89329 -9.04363 3028 ft 180 kts 77°
2026-05-09 20:16 53.89467 -9.02285 2799 ft 175 kts 77°
2026-05-09 20:16 53.89601 -9.00265 2572 ft 169 kts 77°
2026-05-09 20:17 53.89730 -8.98342 2358 ft 160 kts 76°
2026-05-09 20:17 53.89853 -8.96504 2141 ft 153 kts 76°
2026-05-09 20:17 53.89970 -8.94741 1940 ft 149 kts 76°
2026-05-09 20:17 53.90087 -8.92990 1772 ft 148 kts 77°
2026-05-09 20:18 53.90194 -8.91302 1540 ft 140 kts 77°
2026-05-09 20:18 53.90299 -8.89715 1413 ft 136 kts 77°
2026-05-09 20:18 53.90360 -8.88099 1283 ft 137 kts 80°
2026-05-09 20:18 53.90461 -8.86509 1074 ft 134 kts 73°
2026-05-09 20:19 53.90654 -8.84971 896 ft 135 kts 74°
2026-05-09 20:19 53.90845 -8.83397 699 ft 137 kts 74°
2026-05-09 20:19 53.91014 -8.81968 652 ft 89 kts 78°
2026-05-09 20:19 53.91091 -8.81325 650 ft 40 kts 78°
2026-05-09 20:20 53.91129 -8.81003 653 ft 16 kts 78°
2026-05-09 20:20 53.91162 -8.80877 654 ft 10 kts 30°
2026-05-09 20:20 53.91240 -8.80886 653 ft 14 kts 348°
2026-05-09 20:20 53.91320 -8.80914 651 ft 8 kts 348°
2026-05-09 20:21 53.91347 -8.80974 652 ft 2 kts 261°
2026-05-09 20:21 53.91345 -8.80997 652 ft 1 kts 260°
2026-05-09 20:21 53.91344 -8.81000 652 ft 0 kts 259°